Weather in Sevastopolskaya

Russia / Republic of Adygea     44°21′09″N   40°18′30″E
temp.,
°C
wind,
m/s
gust,
m/s
humid.,
%
clouds,
%
prec.,
mm/h
press.,
hPa
HPBL,
m
18 may, wed
wed1800:00+8s237536 0.0 101850
03:00+7s337290 0.0 101664
06:00+8s237198 0.0 101577
09:00+18s024177 0.0 10121103
12:00+21nnw363211 0.0 10092513
15:00+22wnw152999 0.0 10082305
18:00+17ne1264100 0.0 101077
21:00+12s226958 0.0 101242
19 may, thu
thu1900:00+9ssw346522 0.0 101357
03:00+10wsw237679 0.1 101494
06:00+9nnw129891 2.4 1015178
09:00+7nnw2499100 5.5 1018388
12:00+7nnw2499100 2.7 1019401
15:00+7wnw2496100 6.4 1019506
18:00+7ssw2496100 3.5 1020321
21:00+5sw229689 3.7 102148
20 may, fri
fri2000:00+2ssw339433 0.0 102360
03:00+2ssw349276 0.0 102375
06:00+4ssw249298 0.2 1024113
09:00+10w256590 0.3 1022972
12:00+13wnw4551100 0.4 10211783
15:00+12wnw457298 1.6 10211350
18:00+9sw258976 1.6 1022419
21:00+5ssw33945 1.6 102448
21 may, sat
sat2100:00+4s33925 0.0 102345
03:00+4s339261 0.0 102255
06:00+5s348999 0.0 102187
09:00+15sw354713 0.0 10161124
12:00+18sw454096 0.0 10141659
15:00+18sw474199 0.0 10131466
18:00+12ssw3971100 0.1 1013580
21:00+9sw2477100 0.1 101493
22 may, sun
sun2200:00+9ssw466159 0.0 1013152
03:00+7s366499 0.0 1013119
06:00+8s346567 0.0 101298
09:00+18wsw244155 0.0 10091104
12:00+22wsw363381 0.0 10062710
15:00+12nne1291100 0.8 100892
18:00+12s258697 1.1 1006178
21:00+10sw1191100 1.1 100616